Location: Hurecourt
(47.9030°N, 6.0653°E)
Time: 10:42:10
(UTC+00:00)

CZ-4C R/B - Pass Details

Date: 14 July 2020
Orbit: 463 x 636 km, 98.0° (Epoch: 05 August)

Event Time Altitude Azimuth Distance (km) Brightness Sun altitude
Exits shadow 01:11:25 33° 159° (SSE) 908 4.0 -17.6°
Maximum altitude 01:13:04 82° 76° (ENE) 528 3.2 -17.5°
Drops below altitude 10° 01:16:45 10° 348° (NNW) 1,711 6.6 -17.3°
Sets 01:18:46 0° 348° (NNW) 2,577 7.7 -17.1°
